Starlink 31307

operational
NORAD ID: 59089 Int'l Des: 2024-041 Owner: SPXS Country: US Constellation: starlink
LEOCIRCULAR

关于 Starlink 31307

正在加载描述...

实时位置

正在加载3D地球...

即将过境

高度历史

Altitude vs Time

uPlot chart will show altitude changes over time

两行轨道根数

1 59089U 24041R 25258.25823693 .00001853 00000-0 76811-4 0 9996
2 59089 42.9991 221.2669 0001055 276.4740 83.5991 15.27584464 87495
Epoch: Sep 15, 2025 • Age: 7 hours

当前状态

高度 494.7 km
速度 7.62 km/s
星下点 -40.63°S, 92.6°W
发射日期 Feb 29, 2024
运行时间 1.5 years
类型 internet

技术详情

分类 Payload
质量 730.00 kg
干质量 700.00 kg
总质量 730.00 kg
长度 0.30 m
直径 4.10 m
跨度 29.00 m
形状 Box + pan
制造商 SPXS
平台类型 Starlink V2M
阶段状态 In Orbit
所有者/国家 SPXS/US

大型星座

Loading constellations...